EW5537 Weather Reports


time (UTC)temp
F
wind
direction
speed
knots
gust
knots
rain 1hr
in
rain 24hr
in
rain mn
in
humidity
%
barometer
mb
20260902134531 62 26 0.0 0.0 0.00 0.00 0.00 81 1016.0
20260902134018 62 26 0.0 0.0 0.00 0.00 0.00 81 1016.1
20260902133518 62 26 0.0 0.0 0.00 0.00 0.00 81 1016.0
20260902133031 62 26 0.0 0.0 0.00 0.00 0.00 81 1015.9
20260902132524 62 26 0.0 0.0 0.00 0.00 0.00 82 1015.9
20260902132005 62 26 0.0 0.0 0.00 0.00 0.00 81 1015.9
20260902131507 62 26 0.0 0.0 0.00 0.00 0.00 81 1015.9
20260902131007 62 26 0.0 0.0 0.00 0.00 0.00 81 1015.9
20260902130508 62 26 0.0 0.0 0.00 0.00 0.00 81 1015.9
20260902130005 62 26 0.0 1.7 0.00 0.00 0.00 81 1015.9
20260902125505 62 26 0.0 1.7 0.00 0.00 0.00 81 1015.9
20260902125004 62 26 0.0 1.7 0.00 0.00 0.00 82 1015.9
20260902124508 62 23 0.0 0.0 0.00 0.00 0.00 81 1015.9
20260902124004 62 23 0.0 0.0 0.00 0.00 0.00 81 1015.9
20260902123507 62 23 0.0 0.0 0.00 0.00 0.00 81 1015.9
20260902123010 62 23 0.0 0.0 0.00 0.00 0.00 81 1015.9
20260902122509 62 23 0.0 0.0 0.00 0.00 0.00 81 1016.0
20260902122007 62 23 0.0 0.0 0.00 0.00 0.00 81 1016.0
20260902121509 62 23 0.0 0.0 0.00 0.00 0.00 81 1016.1
20260902121005 62 23 0.0 0.0 0.00 0.00 0.00 81 1016.1
20260902120509 62 23 0.0 0.0 0.00 0.00 0.00 81 1016.1
20260902120020 62 23 0.0 0.0 0.00 0.00 0.00 81 1016.1
20260902115509 62 23 0.0 0.0 0.00 0.00 0.00 81 1016.1
20260902115008 62 23 0.0 0.0 0.00 0.00 0.00 81 1016.2
20260902114504 62 23 0.0 0.0 0.00 0.00 0.00 82 1016.2
20260902114007 61 23 0.0 0.0 0.00 0.00 0.00 81 1016.1
20260902113505 61 23 0.0 0.0 0.00 0.00 0.00 80 1016.1
20260902113009 61 23 0.0 0.0 0.00 0.00 0.00 80 1016.1
20260902112508 61 23 0.0 0.0 0.00 0.00 0.00 80 1016.1
20260902112008 61 23 0.0 0.0 0.00 0.00 0.00 82 1016.1
20260902111512 60 23 0.0 0.0 0.00 0.00 0.00 81 1016.1
20260902111012 61 23 0.0 0.0 0.00 0.00 0.00 80 1016.0
20260902110508 61 23 0.0 0.0 0.00 0.00 0.00 80 1016.0
20260902110018 61 23 0.0 0.0 0.00 0.00 0.00 79 1016.0
20260902105508 62 23 0.0 0.0 0.00 0.00 0.00 79 1016.1
20260902105008 62 23 0.0 0.0 0.00 0.00 0.00 79 1016.1
20260902104515 62 23 0.0 0.0 0.00 0.00 0.00 79 1016.1
20260902104013 63 23 0.0 0.0 0.00 0.00 0.00 78 1016.1
20260902103509 63 23 0.0 0.0 0.00 0.00 0.00 79 1016.1
20260902103008 63 25 0.0 0.0 0.00 0.00 0.00 80 1016.1
20260902102507 63 22 0.0 0.0 0.00 0.00 0.00 80 1016.1
20260902102008 62 347 0.0 0.0 0.00 0.00 0.00 79 1016.1
20260902101510 62 347 0.0 0.0 0.00 0.00 0.00 79 1016.0
20260902101008 61 347 0.0 0.0 0.00 0.00 0.00 79 1016.0
20260902100510 61 348 0.0 0.0 0.00 0.00 0.00 78 1016.0
20260902100017 61 352 0.0 0.0 0.00 0.00 0.00 79 1016.0
20260902095510 61 333 0.0 0.0 0.00 0.00 0.00 77 1016.0
20260902095007 61 336 0.0 0.0 0.00 0.00 0.00 77 1016.0
20260902094520 62 337 0.0 0.0 0.00 0.00 0.00 78 1016.0
20260902094012 62 352 0.0 0.0 0.00 0.00 0.00 78 1016.0
20260902093514 63 352 0.0 1.7 0.00 0.00 0.00 77 1015.9
20260902093017 63 360 0.0 1.7 0.00 0.00 0.00 79 1016.0
20260902092514 63 329 0.0 0.0 0.00 0.00 0.00 78 1016.1
20260902092006 63 329 0.0 0.0 0.00 0.00 0.00 75 1016.0
20260902091511 64 360 0.0 0.0 0.00 0.00 0.00 78 1016.0
20260902091009 63 9 0.0 0.0 0.00 0.00 0.00 77 1016.0
20260902090508 64 5 0.0 1.7 0.00 0.00 0.00 77 1015.9
20260902090017 64 30 0.0 1.7 0.00 0.00 0.00 78 1016.0
20260902085510 64 34 0.0 1.7 0.00 0.00 0.00 75 1016.0
20260902085015 65 31 0.0 1.7 0.00 0.00 0.00 76 1016.0
20260902084518 64 360 0.0 1.7 0.00 0.00 0.00 76 1016.0
20260902084015 64 27 0.0 1.7 0.00 0.00 0.00 77 1016.1
20260902083511 64 34 0.0 1.7 0.00 0.00 0.00 76 1016.1
20260902083018 63 345 0.0 0.0 0.00 0.00 0.00 74 1016.1
20260902082512 64 345 0.0 0.0 0.00 0.00 0.00 73 1016.0
20260902082010 65 11 0.0 1.7 0.00 0.00 0.00 74 1016.0
20260902081521 65 5 0.0 1.7 0.00 0.00 0.00 74 1016.1
20260902081012 65 33 0.0 1.7 0.00 0.00 0.00 74 1016.1
20260902080506 65 13 0.0 1.7 0.00 0.00 0.00 74 1016.1
20260902080012 65 9 0.0 1.7 0.00 0.00 0.00 74 1016.0
20260902075507 65 348 0.0 1.7 0.00 0.00 0.00 73 1016.0
20260902075011 65 44 0.0 1.7 0.00 0.00 0.00 73 1015.9
20260902074517 65 35 0.0 1.7 0.00 0.00 0.00 72 1016.0
20260902074012 65 18 0.0 1.7 0.00 0.00 0.00 73 1015.9
20260902073511 65 22 0.0 1.7 0.00 0.00 0.00 72 1015.9
20260902073020 65 352 0.0 0.9 0.00 0.00 0.00 72 1015.9
20260902072513 65 19 0.0 1.7 0.00 0.00 0.00 72 1015.9
20260902072012 65 360 0.0 1.7 0.00 0.00 0.00 72 1015.8
20260902071526 64 5 0.0 0.0 0.00 0.00 0.00 72 1015.8
20260902071012 64 352 0.0 0.0 0.00 0.00 0.00 71 1015.8
20260902070514 64 352 0.0 0.9 0.00 0.00 0.00 70 1015.7
20260902070025 65 360 0.0 0.9 0.00 0.00 0.00 72 1015.8
20260902065514 65 5 0.0 1.7 0.00 0.00 0.00 71 1015.7
20260902065011 64 9 0.0 1.7 0.00 0.00 0.00 71 1015.6
20260902064515 63 352 0.0 0.0 0.00 0.00 0.00 70 1015.6
20260902064010 63 352 0.0 0.0 0.00 0.00 0.00 67 1015.5
20260902063511 64 5 0.0 0.0 0.00 0.00 0.00 67 1015.6
20260902063020 65 360 0.0 0.0 0.00 0.00 0.00 67 1015.6
20260902062513 65 5 0.0 0.0 0.00 0.00 0.00 68 1015.5
20260902062014 64 5 0.0 0.0 0.00 0.00 0.00 68 1015.6
20260902061527 64 360 0.0 0.0 0.00 0.00 0.00 67 1015.6
20260902061012 64 360 0.0 0.0 0.00 0.00 0.00 67 1015.5
20260902060507 64 360 0.0 0.0 0.00 0.00 0.00 66 1015.5
20260902060015 65 360 0.0 0.0 0.00 0.00 0.00 66 1015.5
20260902055509 65 360 0.0 0.0 0.00 0.00 0.00 67 1015.5
20260902055006 65 360 0.0 0.0 0.00 0.00 0.00 66 1015.4
20260902054513 64 9 0.0 0.0 0.00 0.00 0.00 64 1015.4
20260902054009 65 9 0.0 0.0 0.00 0.00 0.00 63 1015.4
20260902053509 64 9 0.0 0.0 0.00 0.00 0.00 64 1015.4
20260902053032 64 9 0.0 0.0 0.00 0.00 0.00 62 1015.5
20260902052515 64 9 0.0 0.0 0.00 0.00 0.00 60 1015.5
20260902052014 65 13 0.0 0.0 0.00 0.00 0.00 60 1015.5
20260902051524 65 349 0.0 0.0 0.00 0.00 0.00 61 1015.5
20260902051015 65 349 0.0 0.0 0.00 0.00 0.00 58 1015.5
20260902050512 65 349 0.0 0.0 0.00 0.00 0.00 58 1015.5
20260902050025 65 349 0.0 0.0 0.00 0.00 0.00 60 1015.4
20260902045505 65 349 0.0 0.0 0.00 0.00 0.00 61 1015.4
20260902045007 65 349 0.0 0.0 0.00 0.00 0.00 61 1015.4
20260902044511 65 349 0.0 0.0 0.00 0.00 0.00 62 1015.4
20260902044008 65 349 0.0 0.0 0.00 0.00 0.00 66 1015.3
20260902043507 65 349 0.0 0.0 0.00 0.00 0.00 67 1015.1
20260902043014 65 349 0.0 0.0 0.00 0.00 0.00 67 1015.1
20260902042511 65 349 0.0 0.0 0.00 0.00 0.00 68 1014.9
20260902042013 65 349 0.0 0.0 0.00 0.00 0.00 68 1014.7
20260902041525 65 349 0.0 0.0 0.00 0.00 0.00 66 1014.7
20260902041013 66 360 0.0 0.0 0.00 0.00 0.00 65 1014.7
20260902040518 67 5 0.0 1.7 0.00 0.00 0.00 65 1014.7
20260902040024 67 5 0.0 1.7 0.00 0.00 0.00 65 1014.7
20260902035517 67 360 0.0 0.0 0.00 0.00 0.00 66 1014.6
20260902035016 67 360 0.0 0.0 0.00 0.00 0.00 66 1014.5
20260902034528 67 5 0.0 0.0 0.00 0.00 0.00 66 1014.4
20260902034005 67 9 0.0 0.0 0.00 0.00 0.00 66 1014.3
20260902033507 68 9 0.0 0.0 0.00 0.00 0.00 67 1014.2
20260902033020 68 9 0.0 0.0 0.00 0.00 0.00 68 1014.1
20260902032511 68 9 0.0 0.0 0.00 0.00 0.00 70 1014.1
20260902032012 68 9 0.0 0.0 0.00 0.00 0.00 69 1014.2
20260902031518 69 9 0.0 0.0 0.00 0.00 0.00 68 1014.2
20260902031012 70 9 0.0 0.0 0.00 0.00 0.00 67 1014.2
20260902030512 70 9 0.0 0.0 0.00 0.00 0.00 67 1014.2
20260902030023 70 9 0.0 0.0 0.00 0.00 0.00 68 1014.2
20260902025516 69 9 0.0 0.0 0.00 0.00 0.00 68 1014.2
20260902025019 70 9 0.0 0.0 0.00 0.00 0.00 67 1014.2
20260902024526 70 9 0.0 0.0 0.00 0.00 0.00 67 1014.2
20260902024015 70 5 0.0 1.7 0.00 0.00 0.00 68 1014.1
20260902023513 69 23 0.0 1.7 0.00 0.00 0.00 68 1014.1
20260902023008 70 98 0.0 0.0 0.00 0.00 0.00 68 1014.0
20260902022507 69 122 0.0 1.7 0.00 0.00 0.00 67 1014.0
20260902022008 70 56 0.0 1.7 0.00 0.00 0.00 67 1014.0
20260902021514 70 134 0.0 1.7 0.00 0.00 0.00 67 1014.0
20260902021010 70 311 0.0 1.7 0.00 0.00 0.00 66 1014.0
20260902020513 70 311 0.0 1.7 0.00 0.00 0.00 66 1014.0
20260902020021 70 10 0.0 1.7 0.00 0.00 0.00 67 1014.1
20260902015513 71 327 0.0 1.7 0.00 0.00 0.00 66 1014.1
20260902015014 70 330 0.0 2.6 0.00 0.00 0.00 66 1014.1
20260902014534 71 294 0.0 2.6 0.00 0.00 0.00 66 1014.1
20260902014019 70 26 0.0 2.6 0.00 0.00 0.00 66 1014.1
20260902013517 71 196 0.0 2.6 0.00 0.00 0.00 67 1014.0
20260902013030 71 77 0.0 2.6 0.00 0.00 0.00 67 1014.2
20260902012516 71 329 0.0 2.6 0.00 0.00 0.00 68 1014.2
20260902012016 71 51 0.9 2.6 0.00 0.00 0.00 67 1014.2
20260902011523 71 81 0.0 3.5 0.00 0.00 0.00 67 1014.1
20260902011010 71 319 0.0 3.5 0.00 0.00 0.00 69 1014.1
20260902010511 71 84 0.9 2.6 0.00 0.00 0.00 68 1014.3
20260902010019 71 109 0.9 3.5 0.00 0.00 0.00 68 1014.4
20260902005512 72 96 0.9 3.5 0.00 0.00 0.00 68 1014.4
20260902005014 72 268 0.9 3.5 0.00 0.00 0.00 69 1014.3
20260902004529 71 46 0.9 3.5 0.00 0.00 0.00 70 1014.4
20260902004018 71 281 0.9 2.6 0.00 0.00 0.00 70 1014.5
20260902003515 72 111 0.0 3.5 0.00 0.00 0.00 68 1014.5
20260902003007 71 57 0.9 5.2 0.00 0.00 0.00 70 1014.5
20260902002504 72 352 0.9 5.2 0.00 0.00 0.00 69 1014.5
20260902002006 73 11 0.9 4.3 0.00 0.00 0.00 67 1014.6
20260902001506 73 316 0.9 4.3 0.00 0.00 0.00 67 1014.5
20260902001007 73 313 0.9 4.3 0.00 0.00 0.00 67 1014.5
20260902000511 74 333 0.9 3.5 0.00 0.00 0.00 67 1014.5
20260902000026 72 18 0.9 3.5 0.00 0.00 0.00 68 1014.5
20260901235512 73 53 0.0 4.3 0.00 0.00 0.00 68 1014.5
20260901235012 73 344 0.9 4.3 0.00 0.00 0.00 68 1014.6
20260901234546 73 141 0.9 3.5 0.00 0.00 0.00 68 1014.6
20260901234013 72 5 0.9 3.5 0.00 0.00 0.00 69 1014.6
20260901233515 73 19 0.9 3.5 0.00 0.00 0.00 68 1014.7
20260901233025 73 339 1.7 5.2 0.00 0.00 0.00 69 1014.6
20260901232516 74 278 1.7 5.2 0.00 0.00 0.00 67 1014.7
20260901232008 74 350 0.0 7.8 0.00 0.00 0.00 68 1014.7
20260901231511 74 51 1.7 6.1 0.00 0.00 0.00 67 1014.7
20260901231007 74 327 1.7 4.3 0.00 0.00 0.00 66 1014.7
20260901230510 73 30 1.7 5.2 0.00 0.00 0.00 68 1014.7
20260901230012 74 94 1.7 5.2 0.00 0.00 0.00 67 1014.7
20260901225508 74 332 0.9 5.2 0.00 0.00 0.00 67 1014.7
20260901225013 73 121 0.9 5.2 0.00 0.00 0.00 69 1014.8
20260901224525 73 342 0.9 8.7 0.00 0.00 0.00 68 1014.9
20260901224013 73 28 1.7 8.7 0.00 0.00 0.00 68 1014.9
20260901223516 74 360 0.9 7.0 0.00 0.00 0.00 70 1014.9
20260901223035 73 347 0.9 7.0 0.00 0.00 0.00 69 1014.9
20260901222516 73 26 0.9 5.2 0.00 0.00 0.00 70 1015.0
20260901222018 72 38 1.7 5.2 0.00 0.00 0.00 70 1015.0
20260901221534 73 149 1.7 4.3 0.00 0.00 0.00 68 1015.1
20260901221016 73 9 0.9 6.1 0.00 0.00 0.00 70 1015.1
20260901220503 74 85 0.9 6.1 0.00 0.00 0.00 68 1015.2
20260901220008 73 54 1.7 4.3 0.00 0.00 0.00 69 1015.2
20260901215509 73 109 1.7 5.2 0.00 0.00 0.00 69 1015.3
20260901215009 74 309 0.9 6.1 0.00 0.00 0.00 68 1015.4
20260901214515 74 290 0.9 8.7 0.00 0.00 0.00 69 1015.4
20260901214009 75 223 2.6 8.7 0.00 0.00 0.00 67 1015.4
20260901213513 74 315 0.9 7.0 0.00 0.00 0.00 68 1015.5
20260901213022 74 290 0.9 7.0 0.00 0.00 0.00 69 1015.5
20260901212512 74 173 0.9 3.5 0.00 0.00 0.00 67 1015.4
20260901212016 74 344 0.9 3.5 0.00 0.00 0.00 67 1015.5
20260901211538 73 110 0.9 3.5 0.00 0.00 0.00 69 1015.5
20260901211014 73 126 0.9 3.5 0.00 0.00 0.00 69 1015.6
20260901210517 72 31 0.9 5.2 0.00 0.00 0.00 70 1015.6
20260901210027 73 352 0.9 5.2 0.00 0.00 0.00 69 1015.7
20260901205507 73 225 1.7 4.3 0.00 0.00 0.00 68 1015.8
20260901205009 74 334 0.9 4.3 0.00 0.00 0.00 67 1015.8
20260901204515 75 5 0.9 4.3 0.00 0.00 0.00 66 1015.9
20260901204010 74 322 1.7 4.3 0.00 0.00 0.00 67 1015.9
20260901203511 73 298 0.9 3.5 0.00 0.00 0.00 67 1015.9
20260901203023 74 57 0.9 3.5 0.00 0.00 0.00 66 1015.9
20260901202514 74 337 0.9 4.3 0.00 0.00 0.00 67 1015.9
20260901202011 75 323 0.9 4.3 0.00 0.00 0.00 67 1016.1
20260901201522 75 344 0.9 3.5 0.00 0.00 0.00 66 1016.2
20260901201014 74 26 0.9 3.5 0.00 0.00 0.00 68 1016.3
20260901200517 74 360 0.9 5.2 0.00 0.00 0.00 68 1016.2
20260901200041 73 130 1.7 5.2 0.00 0.00 0.00 68 1016.3
20260901195516 74 22 0.9 4.3 0.00 0.00 0.00 68 1016.4
20260901195022 74 259 0.9 3.5 0.00 0.00 0.00 67 1016.4
20260901194514 75 295 0.9 3.5 0.00 0.00 0.00 68 1016.5
20260901194009 74 360 0.0 3.5 0.00 0.00 0.00 69 1016.5
20260901193510 73 211 0.0 3.5 0.00 0.00 0.00 68 1016.5
20260901193015 74 350 0.9 3.5 0.00 0.00 0.00 68 1016.5
20260901192514 72 270 0.9 6.1 0.00 0.00 0.00 69 1016.7
20260901192011 72 278 1.7 6.1 0.00 0.00 0.00 69 1016.7
20260901191527 73 175 0.9 3.5 0.00 0.00 0.00 70 1016.7
20260901191021 72 134 0.9 5.2 0.00 0.00 0.00 70 1016.7
20260901190516 72 132 1.7 5.2 0.00 0.00 0.00 70 1016.8
20260901190030 72 126 0.9 5.2 0.00 0.00 0.00 71 1016.7
20260901185516 72 144 0.9 3.5 0.00 0.00 0.00 70 1016.6
20260901185015 72 113 0.9 3.5 0.00 0.00 0.00 71 1016.6
20260901184530 71 163 1.7 3.5 0.00 0.00 0.00 71 1016.6
20260901184018 72 136 0.9 3.5 0.00 0.00 0.00 69 1016.6
20260901183515 73 164 0.9 3.5 0.00 0.00 0.00 70 1016.5
20260901183033 72 271 0.9 3.5 0.00 0.00 0.00 70 1016.6
20260901182508 71 283 0.9 3.5 0.00 0.00 0.00 71 1016.7
20260901182010 72 108 0.9 2.6 0.00 0.00 0.00 71 1016.6
20260901181520 72 42 0.9 2.6 0.00 0.00 0.00 70 1016.5
20260901181013 71 41 0.0 4.3 0.00 0.00 0.00 71 1016.5
20260901180512 71 123 0.9 4.3 0.00 0.00 0.00 71 1016.5
20260901180028 71 14 0.9 2.6 0.00 0.00 0.00 71 1016.6
20260901175519 71 105 0.9 2.6 0.00 0.00 0.00 71 1016.6
20260901175016 71 71 0.9 2.6 0.00 0.00 0.00 71 1016.6
20260901174527 71 139 0.0 1.7 0.00 0.00 0.00 72 1016.6
20260901174017 70 273 0.0 2.6 0.00 0.00 0.00 72 1016.6
20260901173517 71 111 0.9 2.6 0.00 0.00 0.00 72 1016.6
20260901173030 70 221 0.9 3.5 0.00 0.00 0.00 72 1016.6
20260901172520 70 14 0.9 3.5 0.00 0.00 0.00 72 1016.5
20260901172011 70 305 0.9 3.5 0.00 0.00 0.00 72 1016.6
20260901171518 70 113 0.0 2.6 0.00 0.00 0.00 72 1016.6
20260901171010 70 101 1.7 2.6 0.00 0.00 0.00 72 1016.6
20260901170511 69 48 0.0 2.6 0.00 0.00 0.00 74 1016.4
20260901170023 70 205 0.0 3.5 0.00 0.00 0.00 73 1016.4
20260901165512 70 127 0.9 3.5 0.00 0.00 0.00 72 1016.4
20260901165016 70 122 0.0 1.7 0.00 0.00 0.00 72 1016.4
20260901164527 71 117 0.0 4.3 0.00 0.00 0.00 70 1016.4
20260901164015 70 157 0.9 4.3 0.00 0.00 0.00 70 1016.4
20260901163515 70 146 0.0 3.5 0.00 0.00 0.00 72 1016.2
20260901163029 70 169 0.9 3.5 0.00 0.00 0.00 73 1016.3
20260901162520 69 153 0.9 1.7 0.00 0.00 0.00 72 1016.3
20260901162019 69 9 0.0 1.7 0.00 0.00 0.00 74 1016.3
20260901161533 69 200 0.0 1.7 0.00 0.00 0.00 73 1016.3
20260901161019 69 139 0.0 1.7 0.00 0.00 0.00 75 1016.3
20260901160509 69 117 0.0 1.7 0.00 0.00 0.00 74 1016.3
20260901160018 68 11 0.0 1.7 0.00 0.00 0.00 75 1016.3
20260901155514 68 21 0.0 1.7 0.00 0.00 0.00 75 1016.4
20260901155017 68 146 0.0 1.7 0.00 0.00 0.00 74 1016.4
20260901154524 69 105 0.0 1.7 0.00 0.00 0.00 75 1016.4
20260901154015 68 171 0.0 1.7 0.00 0.00 0.00 76 1016.3
20260901153504 68 170 0.0 1.7 0.00 0.00 0.00 77 1016.3
20260901153005 67 160 0.0 1.7 0.00 0.00 0.00 77 1016.3
20260901152505 67 221 0.0 1.7 0.00 0.00 0.00 77 1016.3
20260901152012 67 234 0.0 0.0 0.00 0.00 0.00 76 1016.3
20260901151509 67 234 0.0 0.0 0.00 0.00 0.00 77 1016.2
20260901151008 67 219 0.0 0.9 0.00 0.00 0.00 78 1016.0
20260901150514 67 200 0.0 0.9 0.00 0.00 0.00 77 1015.9
20260901150016 67 49 0.0 0.0 0.00 0.00 0.00 78 1015.9
20260901145510 66 51 0.0 0.0 0.00 0.00 0.00 78 1015.8
20260901145013 66 50 0.0 0.0 0.00 0.00 0.00 79 1015.7
20260901144533 66 51 0.0 0.0 0.00 0.00 0.00 78 1015.7
20260901144015 65 25 0.0 0.0 0.00 0.00 0.00 80 1015.7
20260901143504 64 25 0.0 0.0 0.00 0.00 0.00 81 1015.6
20260901143005 64 25 0.0 0.0 0.00 0.00 0.00 81 1015.4
20260901142508 64 25 0.0 0.0 0.00 0.00 0.00 81 1015.4
20260901142004 64 25 0.0 0.0 0.00 0.00 0.00 81 1015.4
20260901141510 63 25 0.0 0.0 0.00 0.00 0.00 82 1015.3
20260901141006 62 25 0.0 0.0 0.00 0.00 0.00 83 1015.2
20260901140509 62 25 0.0 0.0 0.00 0.00 0.00 83 1015.2
20260901140012 62 26 0.0 0.0 0.00 0.00 0.00 83 1015.2
20260901135511 62 26 0.0 0.0 0.00 0.00 0.00 83 1015.1
20260901135012 61 26 0.0 0.0 0.00 0.00 0.00 84 1015.0